Location: Gull Harbor
(47.1000°N, 122.9000°W)
Time: 19:27:08
(UTC-08:00)

Envisat - Pass Details

Date: 24 October 2019
Orbit: 764 x 766 km, 98.1° (Epoch: 21 November)

Event Time Altitude Azimuth Distance (km) Brightness Sun altitude
Rises 06:45:38 0° 30° (NNE) 3,243 6.6 -10.3°
Reaches altitude 10° 06:49:03 10° 54° (NE) 2,310 6.2 -9.7°
Maximum altitude 06:51:49 15° 88° (E) 1,998 6.6 -9.3°
Drops below altitude 10° 06:54:36 10° 121° (ESE) 2,299 6.7 -8.8°
Sets 06:57:58 0° 145° (SE) 3,219 6.9 -8.2°
